GFSFLT2_500_spd_066.txt.gz
Wind_Speed
31 26 24 20 18 26 31 30 23 25 23 24 34 43 44 35 32 29 27 23 18 17 17 13 12 12 15 13 16 17 17 17
24 24 24 24 18 22 25 26 28 27 27 27 32 33 47 40 33 30 27 23 19 16 14 14 15 14 15 17 17 18 19 18
28 23 26 27 26 26 29 29 30 27 24 26 29 31 40 39 32 32 27 23 19 16 16 17 17 14 15 15 19 21 20 21
25 27 28 28 34 30 30 30 28 34 25 17 26 32 41 38 34 32 28 23 21 18 18 17 17 19 18 17 19 21 21 22
9 13 27 31 24 31 29 30 41 31 22 20 33 28 42 35 35 33 28 25 23 21 21 21 22 20 20 20 19 23 22 25
13 13 15 32 46 39 37 30 37 33 35 28 40 34 44 41 34 34 31 30 26 25 23 22 24 23 21 25 21 23 24 26
4 10 17 23 29 39 38 36 37 33 30 30 26 28 46 44 39 38 35 29 27 26 25 23 26 25 24 24 23 25 29 25
3 5 13 21 21 40 40 43 31 30 29 29 32 26 35 45 40 39 34 29 28 27 24 28 32 30 26 25 26 30 31 25
3 2 10 14 20 28 31 27 28 26 29 31 34 30 37 44 47 41 33 32 31 25 24 29 28 28 26 26 25 28 28 27
8 6 10 9 19 23 27 25 31 30 28 32 37 28 35 46 46 41 38 35 30 29 27 26 27 26 26 22 23 26 27 29
14 14 9 14 21 18 24 24 25 29 32 31 26 28 25 41 44 43 36 33 31 34 28 25 25 24 26 26 28 29 30 30
15 15 15 16 21 20 21 23 22 28 32 31 27 25 25 37 33 32 31 27 27 30 32 29 27 26 26 27 29 30 31 24
15 13 16 12 20 19 21 18 22 22 22 25 28 27 25 21 24 26 26 25 28 29 30 29 25 24 25 27 29 25 25 27
13 15 13 15 17 20 22 21 26 14 25 19 24 25 23 20 24 24 25 27 29 28 29 30 25 20 22 24 22 24 27 30
7 13 17 21 19 24 21 22 23 25 20 21 22 23 27 23 27 29 30 31 32 28 27 26 21 18 19 16 22 23 23 24
2 7 10 14 19 24 26 24 26 27 26 23 23 26 30 24 26 30 32 34 32 29 25 22 18 20 22 20 23 25 27 28
2 2 4 4 2 20 28 28 25 26 24 27 29 28 26 27 28 32 36 36 27 21 21 24 24 22 26 24 26 25 26 29
4 2 4 2 2 5 8 19 24 27 26 27 29 34 34 32 31 30 32 25 24 25 22 25 22 26 29 28 28 28 29 31
4 5 4 4 2 3 6 6 9 13 13 8 7 13 21 21 22 22 24 25 24 26 25 30 30 30 27 30 32 30 31 34
5 5 6 5 5 5 5 8 10 10 10 10 12 12 13 15 17 21 21 21 22 24 25 29 30 32 34 37 34 33 35 40

GFSFLT2_500_spd_069.txt.gz
Wind_Speed
26 28 27 29 30 26 33 36 40 40 29 25 23 24 24 29 34 34 32 28 28 25 22 22 19 17 16 14 14 15 15 15
25 26 28 27 23 22 26 37 28 27 26 29 24 31 27 40 37 37 34 31 28 24 24 21 21 17 15 15 16 16 16 17
29 26 22 26 22 19 21 23 26 31 31 28 31 33 39 39 38 39 37 31 28 26 24 23 20 15 17 16 17 17 18 19
26 24 25 29 26 22 22 21 31 31 28 34 32 28 37 36 49 45 38 33 29 29 27 24 17 19 19 17 17 17 17 19
18 8 18 27 28 30 30 28 29 29 34 29 27 25 26 29 42 49 39 36 31 29 28 24 20 20 20 17 18 19 17 19
13 8 14 17 29 32 31 33 34 41 29 35 26 26 30 28 38 42 39 34 31 32 31 25 21 23 23 21 18 19 21 21
11 12 14 14 32 33 39 39 34 26 35 33 25 24 27 27 41 40 37 35 34 34 30 26 21 25 25 23 22 22 22 23
13 11 12 19 33 46 38 47 46 40 35 28 28 32 31 25 42 42 41 38 36 34 30 26 25 26 26 26 25 26 24 24
14 13 7 16 22 23 35 47 40 40 49 34 40 42 34 32 44 49 45 39 36 35 31 31 27 25 23 24 26 27 26 28
14 9 8 7 15 22 29 35 32 34 29 29 34 36 28 30 35 49 50 40 38 37 34 29 26 25 22 22 25 27 28 31
15 9 5 3 8 14 22 34 32 35 36 32 30 29 30 29 26 50 49 40 41 38 35 32 30 25 25 24 25 27 29 31
16 10 10 5 10 12 22 28 26 31 34 30 28 28 37 33 34 38 50 44 43 38 38 33 33 33 30 25 25 28 30 29
10 12 12 11 17 12 17 19 23 31 32 30 30 27 29 26 27 27 33 53 43 36 35 31 33 33 27 27 26 28 29 29
5 11 9 12 13 16 18 20 16 18 25 30 29 29 27 22 16 15 26 31 31 31 29 28 28 27 26 20 19 24 28 26
2 6 10 13 14 13 14 15 15 17 17 16 18 21 21 26 18 20 23 24 25 26 27 26 18 19 20 14 12 17 19 20
5 3 3 11 16 18 17 21 22 22 24 20 21 17 19 23 24 23 26 26 27 28 28 26 18 19 14 18 16 17 21 20
3 2 2 3 4 12 21 25 25 23 22 23 23 20 21 25 25 29 24 27 28 29 24 19 21 21 21 22 21 20 23 24
2 3 1 2 5 8 14 25 27 25 25 22 25 27 26 27 26 25 28 28 27 26 23 21 23 24 23 23 22 23 22 25
0 2 4 4 3 3 3 7 20 23 26 26 20 18 24 33 31 31 28 33 28 29 26 25 26 25 22 23 25 27 29 33
2 2 2 4 6 6 5 5 5 8 10 13 13 10 8 11 20 24 23 25 24 25 25 25 29 26 29 26 30 32 34 36

GFSFLT2_500_spd_072.txt.gz
Wind_Speed
33 30 32 31 34 34 47 38 29 31 39 37 38 30 24 33 37 41 38 32 32 27 20 25 22 23 20 18 17 15 15 13
40 32 30 30 26 33 29 29 30 39 34 30 33 17 24 24 27 44 38 35 32 28 23 25 24 23 23 20 19 17 17 14
34 32 26 30 25 27 26 21 24 40 41 44 29 26 25 24 26 34 40 35 31 30 26 27 24 25 23 22 19 15 17 15
27 25 28 23 26 23 24 27 45 37 43 34 31 31 28 29 30 37 28 35 34 32 27 28 25 24 24 22 17 13 13 14
23 24 17 13 25 24 23 24 24 38 35 30 27 28 28 32 35 33 38 40 37 31 29 28 26 24 25 24 20 16 16 15
14 19 11 9 21 24 21 21 25 26 40 28 26 28 26 22 33 34 36 43 40 32 33 29 29 26 26 25 24 18 17 17
18 18 15 15 15 25 29 25 24 26 29 28 28 26 27 30 25 29 34 47 46 32 35 32 31 28 29 28 24 21 21 19
18 16 16 17 18 23 28 31 31 29 23 36 31 33 27 30 34 31 30 45 40 37 36 33 32 29 30 27 24 20 22 23
19 13 19 14 19 21 32 35 32 32 34 24 30 30 27 30 22 25 29 43 40 35 36 34 33 31 31 27 24 22 21 22
19 18 13 13 13 23 30 33 34 33 34 36 32 36 29 32 32 27 25 40 40 35 39 37 36 30 33 24 22 21 22 23
19 16 12 9 10 19 29 29 42 39 37 32 39 38 36 32 29 30 27 40 43 43 43 41 38 32 33 27 24 25 24 23
17 14 11 6 7 6 18 27 33 36 36 31 27 27 28 21 29 34 26 33 38 50 49 42 38 37 36 32 30 28 26 25
15 8 10 13 11 6 10 14 25 21 24 28 28 29 26 23 28 29 29 32 31 49 48 41 40 40 36 32 33 29 26 24
13 8 8 8 10 10 7 8 15 21 23 27 29 26 25 24 22 27 25 28 25 42 47 42 34 34 31 27 24 22 20 18
12 8 9 6 6 5 8 8 10 11 15 25 26 26 26 25 23 18 18 17 17 20 29 30 29 25 24 19 16 11 10 10
7 7 5 5 10 11 10 11 13 14 13 12 15 16 19 21 21 22 15 13 14 17 22 22 23 22 19 14 13 10 11 7
6 4 3 1 3 6 10 14 15 17 15 14 18 19 15 15 19 18 20 17 19 21 23 21 21 25 24 21 13 13 15 19
5 5 3 3 3 4 6 9 16 18 18 17 18 18 21 17 15 18 22 20 22 24 24 25 31 22 23 25 23 22 20 21
3 4 5 4 4 3 6 9 4 19 22 21 19 19 18 20 26 29 24 24 23 27 28 32 29 26 25 26 25 24 24 23
4 4 3 3 4 5 4 4 4 2 7 9 13 14 15 12 13 23 28 28 27 29 30 27 27 26 27 26 27 24 23 25

GFSFLT2_500_spd_075.txt.gz
Wind_Speed
26 27 31 29 27 30 35 42 38 43 44 33 38 40 33 38 38 39 40 37 36 33 31 28 23 20 21 18 21 18 17 18
28 30 30 25 27 30 34 34 39 43 25 27 31 35 34 35 40 40 38 42 38 37 29 29 23 23 23 20 19 18 18 18
33 31 27 24 28 28 31 29 26 25 37 39 34 33 32 31 35 35 37 36 39 33 32 31 24 25 24 20 20 21 19 16
29 30 27 24 29 23 28 26 27 24 32 33 32 34 22 22 24 22 24 32 41 36 34 31 25 26 23 19 21 21 16 13
28 27 19 19 15 20 24 28 28 26 39 43 40 34 25 27 24 25 23 26 44 34 32 31 27 25 24 19 23 21 17 15
27 23 19 15 11 19 24 26 24 23 33 45 36 24 29 29 28 26 25 33 37 34 35 33 28 27 28 19 23 23 18 16
26 21 19 14 12 13 21 22 25 42 35 36 26 29 27 27 22 24 31 26 35 36 35 35 29 33 29 19 24 20 21 18
25 21 18 13 14 14 21 26 32 22 37 38 25 23 24 24 24 21 22 29 27 36 39 39 31 36 31 22 24 20 21 20
23 22 14 16 11 14 17 24 24 26 32 39 31 25 27 25 20 25 24 20 27 33 40 41 33 39 32 24 24 23 23 22
20 23 14 12 14 11 21 26 28 28 25 33 35 28 27 28 21 23 26 20 25 32 39 41 36 39 33 26 24 25 24 24
18 20 10 9 8 10 14 30 36 31 31 26 35 25 29 33 24 20 26 29 19 31 40 43 36 39 33 30 26 27 28 25
16 15 6 9 6 5 9 20 25 32 33 34 34 35 29 32 34 35 31 24 19 22 39 40 39 38 36 33 31 31 29 29
14 12 6 9 6 3 4 15 27 30 32 37 30 31 23 24 25 20 16 17 23 22 28 39 38 44 42 37 35 35 37 30
12 8 6 6 5 6 5 5 12 23 26 30 27 29 28 24 19 16 17 18 24 26 25 28 29 35 45 40 35 34 27 24
10 9 4 5 5 6 4 3 9 10 22 18 21 23 20 21 21 21 21 21 24 23 25 27 28 29 36 31 29 25 24 18
8 9 7 3 3 5 3 3 7 6 8 11 14 14 19 23 22 23 21 18 21 22 22 23 22 23 27 22 22 21 17 15
7 6 5 4 2 3 4 7 8 9 9 9 11 10 10 13 15 15 19 18 16 17 17 15 16 20 22 21 20 22 22 21
5 5 3 1 1 1 2 3 8 12 13 14 14 13 15 16 12 12 15 19 18 19 20 20 21 24 24 22 24 27 23 22
5 5 4 3 2 2 1 1 1 14 16 17 16 15 14 18 19 18 21 22 23 23 22 22 24 25 27 26 27 29 31 28
6 5 4 4 3 2 3 3 4 5 15 17 17 17 16 15 17 21 24 26 29 26 24 28 27 31 28 31 32 29 30 29

GFSFLT2_500_spd_078.txt.gz
Wind_Speed
22 21 23 27 32 33 34 33 38 37 43 39 31 39 37 35 33 29 34 36 34 33 30 29 23 22 20 17 17 20 19 18
22 22 24 27 29 29 33 33 33 38 31 44 41 43 35 34 32 33 31 36 37 35 31 32 27 22 21 18 20 21 18 17
25 24 25 25 27 29 30 33 31 27 28 46 35 45 35 34 31 35 36 37 38 38 36 35 29 24 22 22 22 21 17 17
27 25 26 25 22 26 32 29 29 27 26 30 40 34 32 33 28 29 38 36 34 36 38 34 31 26 22 24 22 20 18 16
26 25 23 24 24 26 24 26 29 27 23 21 45 32 32 34 33 28 22 41 37 35 30 33 30 27 24 24 22 19 17 14
23 24 21 21 22 22 18 25 26 29 27 23 38 41 37 26 26 23 25 21 23 23 31 34 31 27 28 26 23 19 16 16
25 23 20 18 21 16 16 23 25 24 25 33 41 40 34 28 29 26 23 24 25 24 28 37 32 30 28 28 25 20 17 16
24 22 21 19 15 18 17 21 23 22 23 30 53 42 35 32 28 26 26 27 26 26 28 28 32 34 30 33 25 22 18 18
24 21 22 22 15 16 17 23 22 21 24 31 38 46 31 28 25 24 22 22 24 29 25 33 35 34 33 31 27 26 21 21
23 21 23 19 12 13 13 18 22 30 30 39 36 31 29 27 25 25 25 19 17 17 24 29 35 37 36 35 29 29 27 24
21 20 18 15 13 7 10 21 21 30 25 39 37 29 26 25 27 21 20 19 21 19 18 26 32 33 39 34 31 33 29 29
18 16 10 11 12 9 6 16 23 24 22 32 41 37 24 29 23 28 20 12 19 25 24 27 34 33 39 37 37 37 33 31
13 11 4 9 12 9 7 11 21 27 27 28 32 30 36 23 21 32 27 25 27 29 25 22 31 34 35 35 37 40 37 35
9 11 6 6 11 10 8 8 18 23 31 32 34 29 30 29 28 26 28 19 22 24 21 18 22 29 37 39 37 40 39 35
7 9 8 7 6 6 9 6 10 20 29 32 31 32 32 29 28 22 21 23 25 23 22 20 22 23 29 30 29 35 38 34
5 6 8 3 5 5 7 5 6 12 17 25 26 27 30 31 27 25 24 26 25 23 22 21 23 21 26 27 30 25 30 28
5 4 4 2 1 6 7 7 9 10 11 20 29 23 26 26 26 27 24 24 23 24 17 17 18 19 24 24 20 23 25 26
7 7 4 2 3 4 5 6 9 12 17 18 18 19 20 20 21 20 18 18 20 18 16 16 19 22 25 22 22 25 25 25
7 8 6 5 3 4 3 2 3 15 19 18 18 18 18 19 20 17 17 19 20 18 21 25 26 27 27 26 27 27 26 29
8 8 7 3 2 2 2 2 1 3 17 19 18 19 18 17 21 22 18 18 21 25 28 32 32 31 27 26 29 29 28 31

GFSFLT2_500_spd_081.txt.gz
Wind_Speed
24 22 23 24 27 30 33 36 36 37 37 41 30 32 36 40 46 36 36 32 29 28 29 27 23 25 22 18 17 15 16 18
24 21 24 24 28 29 31 34 36 34 36 38 37 43 39 30 35 27 31 28 32 30 29 25 27 27 24 20 19 17 19 17
25 24 25 26 29 30 29 31 32 33 33 32 30 37 39 36 34 32 32 31 30 30 28 30 29 27 23 22 20 19 18 16
27 30 26 28 30 32 27 27 30 31 32 32 29 32 36 30 34 34 33 30 26 28 30 34 31 31 27 23 20 20 17 17
27 28 27 28 29 31 28 30 28 30 30 30 30 28 43 29 35 33 25 31 30 33 32 36 35 34 28 25 23 21 17 17
28 27 27 29 29 28 26 26 22 31 32 31 31 30 42 42 39 33 29 34 35 31 34 40 38 36 30 27 22 22 17 17
28 27 27 28 29 27 27 24 21 27 29 29 28 26 32 39 36 32 29 26 23 27 30 29 30 28 30 29 22 23 20 18
28 24 23 28 28 27 26 23 23 22 25 26 32 26 40 39 37 25 26 29 18 18 25 23 24 32 33 29 26 23 25 19
24 23 24 28 28 27 28 23 23 21 22 26 30 31 43 38 34 27 26 28 23 24 23 22 24 36 33 30 28 29 25 24
23 23 26 28 28 26 24 23 18 24 23 23 31 35 44 38 35 27 29 25 23 23 23 18 25 29 27 31 32 31 28 29
21 23 24 27 28 21 15 16 19 23 22 22 27 47 50 33 27 27 27 22 16 17 19 23 22 25 29 35 37 34 32 33
21 20 21 23 16 15 13 12 19 19 20 21 27 47 46 29 24 25 26 24 22 23 23 18 18 26 32 38 39 36 38 37
18 15 16 15 10 13 15 15 18 24 20 19 38 47 36 32 31 30 25 23 20 19 19 26 24 24 27 31 36 33 40 40
14 13 11 12 12 14 19 17 16 28 24 19 40 41 36 28 27 29 26 29 27 24 27 29 24 23 25 28 34 34 38 40
13 12 8 9 11 12 11 9 14 24 28 22 28 42 35 32 27 25 25 27 29 31 25 24 23 20 21 23 31 31 36 40
12 11 6 6 7 8 7 6 9 24 33 30 26 27 32 34 32 27 26 27 26 28 26 23 24 21 21 24 28 29 37 35
12 10 6 3 4 7 9 7 9 14 28 33 30 31 30 32 32 30 31 29 25 24 24 24 25 26 24 27 30 28 36 38
10 10 8 5 4 5 5 7 9 10 19 25 34 31 30 22 27 30 31 28 25 26 24 25 26 24 23 25 26 30 30 31
10 9 6 6 6 6 6 7 6 13 18 23 27 30 31 29 28 27 29 26 25 26 26 25 26 22 24 24 25 29 31 30
12 8 5 3 4 5 6 7 7 8 18 20 21 22 20 20 20 23 26 24 24 25 24 27 26 25 25 27 30 34 33 32

GFSFLT2_500_spd_084.txt.gz
Wind_Speed
26 27 27 26 25 26 28 28 31 34 34 34 32 31 27 34 33 29 30 33 31 28 26 27 27 28 19 20 17 17 15 15
26 25 27 27 28 28 30 29 31 32 31 32 33 32 28 27 27 32 39 42 28 29 28 28 33 29 24 20 18 19 16 17
31 26 26 27 29 30 32 32 30 29 29 31 34 34 40 41 34 24 24 37 27 30 28 27 27 27 20 23 22 20 18 17
30 27 27 28 30 32 30 31 30 27 29 29 29 29 28 30 38 31 29 29 30 26 29 27 27 24 25 26 26 22 22 15
31 27 27 28 30 33 31 30 29 29 28 29 30 30 28 33 31 34 34 34 27 27 31 32 32 28 30 30 27 25 21 17
30 27 27 27 31 32 32 30 29 29 26 19 29 30 29 29 30 33 40 35 27 23 28 33 33 33 31 33 28 24 21 19
27 28 26 27 31 33 31 29 30 27 24 26 30 30 30 30 29 33 35 35 22 29 29 35 37 33 32 34 31 27 23 20
27 29 27 28 32 32 30 30 30 28 28 27 29 32 32 34 40 35 34 37 25 31 36 33 42 35 39 35 26 28 25 23
31 31 27 30 32 31 31 31 30 30 29 25 26 27 29 29 40 45 38 33 26 24 27 25 24 26 31 30 26 30 27 27
34 29 27 29 30 30 32 33 30 27 29 27 26 26 30 32 37 44 45 30 32 26 24 21 21 22 23 27 30 33 31 28
32 25 24 24 27 29 29 28 20 25 25 26 25 24 29 37 44 44 37 31 31 24 25 22 23 22 24 30 32 34 33 32
25 22 19 22 25 22 20 15 18 14 21 28 23 22 28 43 47 43 32 26 27 27 24 25 29 27 23 30 30 32 33 35
20 19 17 20 21 18 17 19 18 19 19 25 25 23 31 47 46 36 29 32 28 26 25 23 22 22 24 26 31 33 34 36
19 15 17 17 19 16 18 19 22 20 18 22 21 26 38 48 41 33 30 28 26 25 26 21 23 26 25 28 28 28 31 36
19 14 15 14 17 15 15 14 15 17 20 21 14 34 46 50 39 30 30 23 23 24 24 21 21 28 30 29 28 26 31 36
17 14 12 12 13 12 11 10 11 10 20 21 14 37 46 45 37 31 30 27 22 23 27 27 27 26 30 29 29 26 30 28
15 12 11 11 10 10 8 8 11 10 17 26 22 32 40 36 28 28 29 26 26 26 25 28 29 26 28 29 27 27 29 27
13 11 9 10 9 8 7 7 11 10 8 28 27 23 27 20 25 31 29 27 26 26 28 29 27 27 30 31 29 30 28 32
14 12 9 9 9 8 6 7 7 7 11 11 25 26 29 30 24 25 27 31 29 30 31 30 29 29 29 31 31 30 32 32
15 14 9 6 6 6 4 5 6 6 8 11 26 27 26 25 22 27 30 32 33 28 27 26 26 27 29 29 29 28 27 28

GFSFLT2_500_spd_087.txt.gz
Wind_Speed
37 34 32 29 25 26 25 22 24 26 27 27 28 30 26 28 22 26 29 28 22 24 23 25 28 27 23 24 25 22 17 17
39 36 34 26 26 27 25 25 25 27 30 29 28 28 30 26 21 23 30 30 30 29 30 28 30 30 27 26 19 18 19 17
40 39 36 29 27 30 27 26 26 27 29 28 27 26 30 26 26 32 24 22 31 34 31 32 31 31 29 28 26 24 20 19
39 39 38 31 29 30 28 28 28 27 28 28 26 29 28 27 33 35 33 22 22 45 32 29 33 30 32 30 25 22 24 19
40 39 39 32 30 29 28 27 28 28 28 25 26 30 28 27 22 27 28 25 22 33 29 32 31 29 32 27 26 27 27 22
37 39 36 30 29 30 29 27 30 28 28 25 28 27 28 28 25 24 35 34 29 34 30 31 32 31 33 29 30 30 32 25
35 37 36 30 28 29 28 28 30 29 28 26 28 19 21 29 26 28 30 35 29 35 33 32 34 31 32 31 32 32 32 28
35 38 35 31 29 29 27 30 30 29 29 28 28 25 25 26 28 28 27 35 29 36 30 28 30 31 35 34 36 36 36 28
36 40 36 33 30 30 28 32 32 31 31 30 28 26 26 34 33 30 31 32 37 36 27 27 28 34 33 35 39 39 37 29
40 38 35 36 30 27 29 31 32 33 31 29 28 25 27 30 32 32 33 36 38 36 29 29 32 32 30 41 40 38 31 30
41 36 35 34 29 23 27 29 29 27 21 23 25 28 28 29 29 31 37 43 42 35 29 27 28 30 29 32 37 31 34 33
38 35 36 32 24 24 24 26 23 16 17 17 19 24 27 26 28 27 37 44 42 31 29 30 26 28 27 29 31 29 34 34
34 36 36 27 24 20 23 24 21 20 18 17 16 25 29 27 28 30 42 45 40 33 32 31 28 25 25 21 20 24 29 29
33 36 32 24 21 21 21 20 19 21 24 24 21 27 32 27 26 35 43 48 29 32 33 29 29 30 27 26 22 24 25 29
36 34 27 20 19 20 17 17 17 19 19 22 20 25 29 37 30 37 42 39 35 34 33 31 23 23 24 24 24 22 26 29
34 29 21 18 18 16 15 13 14 15 20 15 24 27 28 31 39 42 44 29 32 34 33 30 29 27 26 25 30 31 32 31
26 25 17 15 16 14 13 11 12 11 19 17 23 18 24 34 45 47 44 32 38 37 31 28 31 29 29 27 28 31 32 32
25 22 16 14 16 12 12 8 8 7 13 6 20 23 21 40 46 48 41 42 34 31 27 28 29 31 30 30 29 32 33 32
24 21 16 13 14 12 12 8 6 5 6 10 15 21 22 42 43 38 35 33 34 30 28 28 29 29 30 32 32 33 34 33
24 21 17 15 12 9 9 8 5 4 5 6 12 22 23 34 26 26 26 29 31 27 27 28 28 31 30 32 31 31 33 31

GFSFLT2_500_spd_090.txt.gz
Wind_Speed
31 33 32 27 25 29 31 30 27 24 22 21 20 23 23 25 25 25 22 23 20 16 25 25 26 26 25 25 23 23 24 22
29 34 35 30 26 29 31 30 29 25 24 22 24 26 26 25 24 27 21 23 24 25 26 31 29 29 29 27 27 28 24 23
27 33 36 31 26 31 33 30 30 27 26 25 25 24 26 26 26 22 22 23 26 25 31 28 27 29 32 30 28 26 29 24
27 32 36 35 29 33 34 31 31 27 28 28 26 26 28 27 26 25 29 30 28 31 34 31 30 30 33 33 29 28 32 23
25 31 37 34 31 32 35 33 31 27 28 29 28 28 29 27 28 27 24 22 28 32 33 35 33 30 35 37 34 34 27 26
27 31 35 34 32 32 35 34 32 26 29 28 28 28 29 26 30 25 22 26 26 23 23 37 37 31 40 38 37 35 32 30
30 34 34 33 31 31 36 35 32 27 26 26 28 29 29 25 26 26 23 18 26 27 27 36 34 36 40 37 37 37 33 31
33 35 35 34 33 32 34 35 32 29 25 27 29 29 26 28 20 22 25 23 31 30 33 31 28 35 38 36 37 37 35 36
32 33 35 36 35 33 33 35 32 28 26 29 31 30 28 26 22 26 27 27 30 35 29 38 32 36 37 34 39 37 35 35
33 34 36 36 32 34 32 33 30 25 27 29 32 30 30 27 23 31 31 29 30 40 35 41 32 33 35 34 36 35 36 37
33 36 36 32 32 33 33 33 28 26 26 26 27 30 30 27 25 33 31 31 30 40 43 39 29 31 36 36 35 35 37 37
32 37 33 31 33 32 33 30 28 25 24 23 20 22 25 28 29 30 33 34 33 39 40 40 28 31 32 32 33 35 36 42
33 36 29 33 31 31 30 29 26 24 25 25 25 22 21 24 31 31 32 33 35 41 43 40 29 34 34 32 31 33 30 33
31 30 30 32 31 30 28 28 24 25 24 25 27 21 24 24 30 31 32 34 38 47 47 41 31 31 26 26 25 26 22 24
29 31 30 33 28 28 28 23 23 23 24 24 26 27 27 26 32 31 31 34 43 46 45 35 32 31 29 25 25 24 25 23
31 31 31 28 30 28 25 19 20 22 21 23 26 26 25 27 36 39 36 34 40 50 41 37 34 29 28 27 28 27 26 27
31 29 26 27 29 26 21 17 19 19 19 22 23 25 28 28 32 33 32 35 44 47 35 32 31 29 27 25 27 25 27 31
27 25 25 28 27 23 18 18 17 16 16 17 24 22 29 26 30 36 38 37 43 45 36 33 32 34 32 31 28 29 31 31
26 25 26 26 23 19 18 18 16 14 15 14 16 22 28 29 27 37 39 46 40 34 35 33 36 35 35 33 34 34 35 34
27 27 26 24 19 18 19 18 15 12 12 12 10 15 23 22 27 37 45 48 39 35 36 39 34 31 32 32 32 33 35 35

GFSFLT2_500_spd_093.txt.gz
Wind_Speed
21 23 27 28 27 29 27 27 27 26 28 26 25 22 18 16 22 22 20 21 24 25 25 26 28 27 28 26 27 27 24 22
21 23 27 29 29 30 29 28 29 26 26 29 28 27 22 24 25 21 22 25 24 27 26 25 28 26 28 28 30 28 26 25
19 22 26 29 31 33 30 30 31 28 27 31 30 30 24 22 24 24 20 24 24 27 27 23 29 29 29 30 30 30 30 25
19 20 25 28 31 34 33 32 32 29 29 32 32 32 28 25 25 24 25 21 29 30 31 31 27 33 33 33 31 33 30 28
20 19 26 28 32 35 34 34 32 29 30 32 34 33 30 27 25 27 27 28 25 26 27 31 33 32 34 35 34 34 31 29
22 22 26 29 34 37 37 36 30 29 31 32 34 35 31 28 27 27 30 29 26 30 30 31 27 37 37 34 36 36 34 32
25 25 26 30 34 37 38 37 32 31 31 34 34 36 32 29 28 29 30 27 22 24 27 30 37 38 34 32 37 37 38 33
29 28 28 29 34 36 37 37 33 30 31 34 35 35 31 29 28 27 27 25 24 20 22 20 30 37 37 25 38 38 40 35
31 29 31 30 33 34 35 35 31 29 31 33 33 34 32 30 29 27 24 24 24 21 23 23 21 34 40 36 37 40 40 38
32 32 30 32 33 32 32 29 31 27 30 30 30 32 32 32 30 27 25 25 26 23 29 26 25 37 35 31 35 37 37 38
33 33 29 33 33 33 29 30 27 27 28 27 30 31 30 30 29 28 28 30 32 26 29 36 32 41 38 25 34 36 35 37
34 33 29 34 33 31 28 30 27 27 26 28 30 30 26 23 25 28 30 32 32 29 30 35 33 41 41 29 33 34 35 34
34 32 33 32 31 29 32 29 27 27 26 29 30 28 28 22 23 30 40 30 29 29 30 34 35 39 33 31 33 34 31 31
34 36 35 25 29 30 34 28 26 26 27 30 30 27 28 26 28 27 34 34 35 32 34 33 41 43 35 30 28 31 33 31
33 35 34 26 29 33 31 24 26 25 29 29 27 27 28 30 28 26 34 34 34 39 36 34 40 43 34 27 32 28 31 30
35 34 34 27 31 32 26 25 24 26 28 27 26 28 27 29 35 32 35 39 38 37 36 37 42 44 37 28 29 32 29 28
34 36 33 29 32 27 24 24 25 27 27 25 26 27 29 30 30 32 35 35 40 40 39 42 45 47 32 34 30 30 29 32
34 34 30 28 28 23 23 24 27 27 24 25 26 28 31 30 34 34 41 40 35 32 38 43 45 46 36 32 29 31 31 31
35 32 28 28 22 23 22 26 26 24 23 25 27 24 25 30 28 33 37 39 36 37 38 42 46 39 37 30 32 29 31 30
33 28 30 22 25 21 22 24 23 21 22 23 24 22 27 25 25 26 33 36 36 33 40 46 44 34 37 34 36 34 33 31

GFSFLT2_500_spd_096.txt.gz
Wind_Speed
21 21 20 22 24 26 25 25 25 25 25 26 24 23 20 22 25 20 21 20 22 19 19 24 29 28 26 29 29 28 25 24
21 21 21 22 25 27 26 25 24 24 24 25 25 23 22 24 27 26 27 26 27 25 24 25 26 28 30 29 29 28 28 25
23 22 23 22 26 26 27 26 26 26 26 26 26 25 25 25 26 26 26 27 26 21 24 22 24 26 29 30 31 29 28 26
26 23 24 23 26 26 27 28 28 27 27 27 28 27 28 27 29 29 28 28 23 23 26 31 28 25 28 28 30 29 31 28
29 25 24 25 25 25 28 31 29 28 29 30 29 29 30 30 29 30 28 29 26 25 27 23 29 32 27 33 29 29 31 29
30 28 24 24 26 25 29 31 30 30 32 33 32 30 32 31 29 32 28 30 26 30 28 24 23 35 31 36 32 33 35 32
30 30 26 23 25 27 31 32 32 32 33 33 33 32 33 32 30 33 31 30 28 30 27 27 23 31 33 32 32 36 36 33
29 30 28 24 26 28 32 33 35 34 34 32 32 34 34 33 29 30 32 29 27 27 25 20 26 31 35 37 31 36 34 37
33 29 30 26 27 28 32 35 36 37 36 29 31 34 32 30 29 29 31 28 27 29 25 22 24 31 36 36 33 33 31 33
37 33 28 29 28 30 32 35 37 36 30 29 29 30 27 28 28 28 31 30 30 27 27 28 28 23 31 40 37 35 32 33
39 32 26 28 30 31 32 35 36 31 27 28 29 27 27 27 28 29 32 33 33 27 27 28 19 21 21 37 36 34 29 29
37 31 27 28 32 32 32 33 32 29 27 27 28 27 26 27 29 29 28 31 29 24 30 28 26 22 30 38 35 25 25 28
36 32 26 29 30 32 31 30 30 30 26 26 27 25 26 28 30 28 27 29 28 30 27 31 31 28 37 37 35 30 25 27
37 33 28 29 31 31 33 31 31 27 24 27 27 25 27 30 31 31 27 29 32 32 33 32 36 37 38 38 38 35 28 30
37 33 32 30 30 34 35 32 28 24 26 26 26 24 28 29 30 30 32 31 38 31 32 31 32 29 32 34 34 26 28 30
36 32 33 30 29 36 34 27 25 25 25 23 24 25 29 28 29 28 33 30 28 34 36 35 37 31 35 36 35 33 29 32
36 31 31 30 32 36 32 25 24 27 22 22 23 26 29 28 29 30 29 34 35 34 37 38 34 33 38 37 39 33 29 33
37 29 32 30 34 34 29 23 26 22 20 22 25 27 29 28 29 30 30 32 33 36 43 34 36 39 35 39 42 33 29 30
35 24 34 31 33 33 28 25 24 20 19 23 27 27 29 29 27 27 30 33 37 40 44 39 40 38 39 40 42 31 30 31
23 33 35 27 31 31 27 25 21 18 20 24 25 27 28 27 30 29 33 35 41 39 38 38 36 40 44 41 41 35 35 28

GFSFLT2_500_spd_099.txt.gz
Wind_Speed
37 34 25 25 24 22 22 26 24 22 22 23 23 23 23 21 21 23 22 19 22 25 24 20 22 25 24 26 27 25 23 24
39 37 25 27 25 23 24 27 24 20 22 23 22 22 23 22 22 22 23 23 26 27 32 23 18 21 26 25 27 28 27 25
40 38 29 28 26 25 27 27 24 22 23 24 22 21 22 22 23 25 23 23 23 25 23 23 23 24 24 26 29 30 28 26
41 37 30 29 28 27 27 26 24 24 24 23 22 23 25 24 23 26 24 25 26 24 24 25 30 27 25 23 27 29 30 28
39 36 33 31 29 29 28 25 24 25 25 24 25 26 30 27 26 28 26 26 26 25 25 24 23 19 27 26 25 27 31 27
39 37 34 32 31 31 27 26 25 26 26 28 27 29 32 30 28 30 27 28 27 27 27 24 24 18 27 28 31 28 31 31
38 36 34 32 31 31 27 28 26 27 28 30 30 32 34 32 30 32 29 28 27 29 25 25 29 27 24 26 34 32 31 29
39 34 32 33 31 32 29 29 28 30 30 32 33 34 34 33 32 32 30 29 27 29 27 27 27 24 23 27 34 34 32 30
42 34 31 33 32 33 31 30 31 31 33 33 35 34 33 33 31 29 28 29 28 29 28 28 27 31 25 28 37 33 31 29
41 38 34 31 33 33 32 33 32 32 33 34 35 34 31 30 29 27 25 29 28 28 29 29 30 30 27 30 38 39 38 34
42 38 38 33 35 34 34 33 33 32 33 33 33 31 29 28 28 26 25 27 28 29 29 28 30 29 24 29 39 42 35 27
42 38 37 35 33 34 34 33 34 33 33 32 32 29 27 29 27 24 24 26 26 27 31 29 31 25 26 25 37 41 33 32
40 38 34 31 27 32 33 33 34 34 34 32 29 26 27 29 26 24 23 26 26 26 30 25 25 26 28 27 35 45 32 29
38 37 34 30 25 32 33 33 34 34 34 31 28 25 29 29 25 24 25 27 27 28 31 33 25 27 28 31 30 32 32 27
36 34 34 33 27 30 32 34 35 32 32 25 26 27 29 28 24 25 26 26 29 32 28 34 32 29 32 35 29 25 28 31
36 39 36 33 30 28 32 35 34 32 31 27 28 27 27 27 24 25 27 28 28 33 29 35 33 31 36 35 32 35 33 35
39 36 38 33 33 28 35 35 33 32 30 29 26 28 27 25 24 26 27 28 30 29 33 27 32 32 31 32 33 31 36 36
37 41 36 32 30 29 36 37 29 30 29 28 27 29 26 24 25 27 29 29 30 29 31 28 29 35 37 36 34 34 33 34
37 37 31 29 31 34 39 36 28 30 29 26 28 27 27 25 26 29 29 30 31 35 31 30 30 38 39 35 35 35 38 36
34 33 28 31 33 38 38 31 29 28 29 28 25 26 25 26 29 29 30 29 33 33 31 34 31 39 37 40 39 34 36 37

GFSFLT2_500_spd_102.txt.gz
Wind_Speed
37 39 38 34 31 33 30 29 25 22 21 23 21 22 22 23 24 22 19 21 21 23 25 26 27 27 19 19 19 22 23 21
40 40 38 35 31 33 32 30 27 24 21 21 21 22 22 22 21 21 20 20 22 22 24 20 22 17 18 21 20 22 25 24
38 41 40 37 32 32 33 31 29 26 22 21 21 21 21 22 22 21 21 23 22 22 25 23 21 18 21 23 23 22 25 26
36 39 40 38 33 33 33 32 31 27 24 22 21 22 22 24 24 23 24 25 24 24 24 25 23 18 20 25 22 25 26 27
39 36 39 38 35 34 32 32 30 29 26 23 22 23 23 25 25 26 26 27 27 25 25 25 23 20 24 32 37 30 26 29
45 38 41 38 36 36 33 33 31 31 28 24 24 24 26 27 27 29 29 31 31 26 26 29 29 27 23 26 25 27 24 27
41 37 40 40 36 37 36 32 32 33 29 27 26 26 28 30 31 33 32 34 33 28 30 32 31 30 20 21 24 26 26 28
33 37 38 38 37 36 37 34 35 34 31 29 28 28 32 32 34 35 35 32 31 30 30 31 30 30 23 21 25 27 31 32
40 35 37 38 36 36 36 37 37 35 32 32 30 30 33 34 35 36 33 30 30 31 31 30 29 32 27 26 23 27 32 36
44 39 35 36 35 35 38 39 38 36 35 33 31 33 34 36 35 30 30 30 31 28 28 30 30 33 30 28 28 28 35 36
46 41 39 35 36 38 39 39 39 38 35 33 33 35 36 36 33 26 29 30 28 27 26 29 30 33 31 34 34 32 35 42
48 46 42 39 38 39 41 40 39 37 33 33 35 37 37 36 29 27 29 26 26 28 27 28 29 31 30 36 34 32 34 42
49 50 45 41 37 38 35 35 38 36 33 34 36 37 38 35 28 29 27 25 26 27 28 27 26 28 32 30 29 29 33 41
50 48 45 39 35 33 36 39 39 39 33 33 36 36 36 33 30 29 25 24 26 29 28 27 23 27 31 28 30 30 38 41
44 43 41 35 33 34 37 38 38 35 33 35 36 37 37 34 32 29 25 24 27 27 25 26 25 26 35 31 29 30 34 41
51 42 36 36 33 32 32 33 38 36 36 37 37 36 38 34 32 28 26 25 24 25 25 25 26 25 30 28 30 32 30 29
38 39 39 38 34 30 30 34 40 39 35 37 37 36 38 33 33 28 29 25 24 24 25 27 26 29 30 32 33 33 32 31
39 35 33 33 32 31 28 37 40 38 36 37 35 36 36 35 33 30 29 26 25 25 25 27 28 30 28 31 35 38 33 33
37 36 37 34 33 31 31 35 42 37 38 37 33 35 34 36 35 31 29 27 28 26 27 28 30 31 32 31 32 36 37 33
37 38 36 32 35 36 36 41 40 38 38 34 33 33 35 38 34 31 30 29 30 28 29 29 30 32 29 29 37 36 37 37

GFSFLT2_500_spd_105.txt.gz
Wind_Speed
44 41 38 36 35 32 32 35 32 31 29 27 23 21 22 22 21 23 22 19 19 19 18 16 16 18 19 20 14 14 17 17
43 41 39 37 37 35 32 35 35 32 32 28 24 22 22 21 20 21 21 20 20 18 19 18 16 18 18 17 15 15 17 20
37 37 37 38 37 35 31 35 36 34 33 30 25 23 22 20 20 22 22 22 22 24 22 19 20 21 19 20 17 18 20 22
39 37 36 36 36 33 31 33 32 34 36 32 27 25 22 21 20 22 22 23 25 26 26 24 20 22 21 19 21 20 24 22
40 42 41 38 36 37 34 32 31 33 36 34 29 27 23 22 22 23 24 26 28 28 27 27 26 23 22 19 21 22 25 30
40 41 40 36 37 42 38 34 33 31 33 34 31 29 26 25 24 25 26 29 30 31 30 29 32 29 27 26 24 24 28 28
39 40 46 36 39 39 40 36 34 31 32 33 33 31 29 27 27 29 29 32 33 33 33 33 34 33 33 30 24 24 25 26
44 41 44 35 40 38 41 40 38 34 32 34 35 32 31 29 30 30 32 35 36 35 32 32 32 33 32 31 29 21 22 24
49 49 43 36 41 37 38 38 40 37 35 35 35 34 33 32 31 31 34 35 37 33 28 29 32 34 31 29 29 24 23 29
54 49 45 37 41 43 39 41 41 40 38 37 36 36 34 33 33 32 33 35 34 28 28 31 31 31 30 30 30 35 23 26
59 51 43 39 41 44 42 44 43 43 42 39 38 39 36 34 33 34 34 34 29 27 31 31 29 28 30 31 29 36 26 27
61 55 45 41 36 44 47 45 44 45 42 41 42 37 35 34 34 33 35 32 28 29 30 29 28 28 30 30 29 31 33 30
60 58 49 46 44 42 44 46 46 45 42 41 38 34 36 35 34 32 34 33 29 30 29 29 27 29 29 27 29 31 38 34
60 58 49 48 48 43 42 46 47 46 45 43 35 34 37 36 34 32 36 35 30 30 29 30 30 28 26 24 33 30 33 35
60 56 50 51 48 46 45 46 48 48 47 37 33 32 39 39 34 35 37 33 31 29 30 29 30 25 25 24 30 33 27 33
58 53 50 51 45 44 46 47 46 46 40 37 36 41 43 40 35 35 37 35 30 31 30 29 29 26 26 24 29 28 28 31
55 54 51 46 41 36 42 46 45 44 43 40 38 41 41 40 34 35 37 35 31 32 31 30 27 27 25 26 26 25 23 30
49 51 51 47 40 35 39 42 41 41 40 39 38 40 40 39 37 36 37 35 33 33 32 31 29 27 26 27 28 27 27 30
44 49 47 44 38 38 39 40 39 42 43 41 40 39 40 38 38 36 37 35 35 35 33 31 30 29 29 28 29 28 28 34
38 39 40 40 38 39 43 47 45 44 40 43 41 39 40 37 37 38 36 34 36 35 36 32 32 31 31 27 31 32 29 36

GFSFLT2_500_spd_111.txt.gz
Wind_Speed
40 39 39 39 38 37 34 30 28 28 27 28 28 25 22 25 22 21 19 19 15 14 13 15 15 15 16 16 14 13 13 10
42 42 41 40 40 39 36 35 32 30 28 28 29 27 23 24 24 22 22 21 17 15 13 14 17 17 17 18 15 13 15 12
40 41 43 43 42 41 37 32 26 25 23 26 27 25 23 23 25 24 23 23 19 16 14 14 17 18 18 18 15 17 17 16
40 38 40 43 40 38 35 30 27 24 23 27 28 27 24 23 25 25 25 24 21 18 17 17 19 19 19 20 17 19 19 16
43 42 41 38 38 37 33 29 26 22 24 28 29 27 25 26 26 26 26 25 23 21 19 19 21 22 23 23 23 23 22 21
47 45 41 41 36 38 37 29 27 25 26 25 28 29 28 29 28 28 28 26 25 23 22 21 23 23 26 28 29 28 27 27
49 47 46 41 41 37 39 36 31 29 27 26 29 30 29 30 31 29 29 28 27 24 24 24 23 26 29 31 28 27 28 31
52 49 48 45 42 42 41 39 40 39 33 31 33 34 30 30 34 31 31 29 28 26 24 25 23 27 30 28 25 22 24 30
51 52 52 49 50 44 43 42 44 43 36 36 36 35 36 32 33 36 34 32 29 27 25 25 25 27 27 21 21 22 23 26
52 53 55 53 50 51 46 47 45 47 43 40 39 37 36 37 36 36 37 36 31 28 26 24 25 27 24 19 21 25 23 23
47 51 53 55 56 55 52 49 49 48 47 43 41 39 39 37 39 38 37 39 35 30 27 22 25 26 23 22 24 24 23 24
51 50 49 52 55 57 54 52 51 53 49 44 41 43 41 39 39 40 38 39 38 33 29 22 24 26 26 24 24 23 26 27
56 57 55 55 54 54 54 52 50 52 51 46 41 43 46 42 41 41 38 39 40 37 30 24 23 27 27 25 24 23 26 28
62 63 63 62 57 55 54 54 52 51 53 51 47 44 48 44 42 43 41 41 40 38 31 27 26 28 29 27 24 22 26 26
71 71 71 70 65 60 58 56 57 54 58 52 47 43 48 44 45 44 43 43 40 38 33 28 30 30 30 29 26 23 25 24
80 81 80 77 72 66 59 56 59 50 54 51 42 48 51 44 47 46 43 42 40 39 36 30 31 30 32 30 28 27 23 20
69 78 84 79 75 71 65 55 59 53 53 49 50 50 48 47 48 46 43 43 42 39 38 29 32 33 31 31 32 27 24 23
49 65 80 76 73 73 67 59 59 54 49 47 52 45 48 47 44 44 44 45 43 40 36 31 34 34 32 33 33 31 26 26
31 41 55 62 65 65 67 62 59 49 46 50 51 45 51 45 43 44 46 45 45 42 36 34 33 35 33 34 34 33 31 29
21 25 37 45 52 56 59 59 52 44 45 50 50 47 49 46 46 48 47 46 42 40 38 36 35 35 35 34 35 34 33 30

GFSFLT2_500_spd_114.txt.gz
Wind_Speed
32 35 35 35 35 36 36 34 32 30 30 30 27 27 24 18 17 18 18 17 18 16 14 14 13 12 13 14 14 14 13 12
36 34 36 35 36 38 36 36 36 34 32 31 28 27 26 22 18 20 18 19 19 17 15 14 13 13 13 14 13 14 15 14
38 35 36 38 38 38 38 37 32 31 30 27 26 24 24 24 20 19 20 19 21 19 17 16 15 14 13 14 14 14 17 17
41 38 37 38 39 38 37 34 31 26 24 26 25 26 26 28 24 22 21 20 21 21 20 18 16 15 15 15 16 16 18 21
44 42 40 41 40 40 38 34 32 27 23 24 30 29 29 29 28 25 24 23 22 22 22 21 19 18 18 18 19 19 22 24
47 47 45 43 43 41 40 37 33 29 26 26 27 28 31 32 29 28 28 25 24 24 24 23 21 21 20 21 23 23 25 24
51 51 50 48 47 43 40 39 37 32 31 26 26 27 30 34 33 31 30 29 26 26 25 24 24 22 21 23 25 25 24 23
52 52 52 52 47 46 41 41 41 35 33 31 32 32 30 33 36 32 33 33 29 27 26 25 23 22 22 23 26 23 19 16
52 53 54 52 50 48 47 43 43 41 38 36 34 34 34 33 33 32 34 37 33 28 28 26 25 23 22 23 23 20 18 19
50 53 53 54 54 52 48 48 47 45 44 41 40 37 36 37 33 33 34 40 39 31 28 29 27 24 22 22 21 18 20 23
48 49 49 52 54 56 53 51 49 48 45 43 46 40 36 39 37 36 34 37 41 37 30 29 29 26 23 20 20 19 21 23
52 52 51 51 52 54 54 56 54 51 50 49 48 44 39 39 40 42 39 38 39 40 32 31 31 28 26 20 19 20 21 23
57 57 59 57 56 55 53 52 54 53 52 51 48 46 44 43 43 45 45 38 37 40 36 34 30 31 30 23 21 21 22 24
59 59 60 60 59 59 57 54 54 54 51 51 52 48 47 46 45 45 46 39 40 39 39 37 34 31 32 27 23 23 23 25
61 63 63 64 64 65 63 61 59 56 51 49 51 47 47 49 47 44 43 49 43 42 41 39 38 33 33 31 26 24 25 25
67 69 71 73 74 73 72 67 64 58 54 51 54 47 48 49 47 48 51 54 49 44 41 40 42 35 36 28 30 29 25 24
73 75 78 78 80 82 81 77 71 67 64 56 52 52 49 49 52 52 54 53 50 45 41 42 41 38 34 34 32 30 27 27
82 84 85 87 87 83 85 84 80 78 72 63 60 59 51 46 56 53 53 52 51 46 42 44 42 41 36 35 33 33 31 30
46 48 53 56 65 78 87 89 86 84 79 69 68 63 54 48 54 55 53 50 52 45 45 45 43 42 37 34 34 33 34 34
32 34 33 35 41 54 70 76 79 82 80 74 71 63 53 50 49 56 53 52 53 49 46 45 43 43 36 35 36 34 35 36

GFSFLT2_500_spd_117.txt.gz
Wind_Speed
32 31 33 33 32 30 29 30 31 29 28 29 30 29 27 27 24 20 20 19 18 18 17 15 13 13 10 10 11 14 13 13
35 35 35 35 34 32 31 31 31 30 28 26 29 29 29 27 26 22 22 22 20 19 18 17 16 14 13 12 11 12 14 13
39 39 38 37 36 35 35 33 32 31 29 25 26 28 27 25 24 24 22 22 21 20 19 19 19 17 16 15 13 13 14 14
43 43 41 40 38 39 38 37 34 32 29 26 26 27 28 25 23 25 26 24 25 22 20 20 21 20 17 18 17 16 15 17
45 46 46 44 42 41 41 41 35 34 29 27 25 26 28 31 30 28 27 27 25 24 24 24 23 22 21 20 20 19 19 20
48 49 48 47 46 44 42 43 39 35 32 29 28 27 28 29 30 29 29 28 28 26 25 24 24 24 23 22 21 20 21 22
50 49 49 49 50 48 48 48 47 40 35 31 30 30 30 27 27 30 30 29 31 29 27 25 25 26 26 22 21 22 22 23
48 51 51 52 52 49 47 50 48 45 43 34 32 31 32 32 28 29 30 29 31 33 28 27 25 26 26 24 21 21 22 22
50 50 53 53 50 48 49 49 48 45 42 42 38 36 33 33 29 30 30 30 29 31 32 28 27 25 26 24 23 21 20 21
50 51 50 52 54 53 51 51 49 48 45 44 44 41 38 38 32 32 35 32 30 31 35 33 28 27 25 24 23 21 20 20
50 48 49 51 54 55 54 54 54 51 48 47 46 44 42 42 35 33 37 37 33 32 33 35 32 30 28 25 23 22 21 20
55 53 52 52 53 54 55 56 56 56 51 48 48 47 44 42 41 37 37 37 34 37 34 35 35 31 32 26 24 23 22 22
57 58 57 56 55 55 55 57 58 57 54 48 50 49 47 45 45 41 38 37 37 38 40 34 37 32 34 29 28 24 22 23
59 60 62 63 63 61 60 58 59 58 56 55 52 52 49 49 46 44 41 41 41 39 39 38 36 36 34 35 30 27 23 25
60 62 63 64 66 65 64 63 62 62 57 55 54 52 49 47 44 45 46 44 43 41 38 39 35 37 38 37 34 29 31 25
60 62 65 67 67 66 65 65 64 62 61 57 56 52 49 49 49 44 48 44 42 41 41 42 46 38 42 38 36 37 34 30
61 62 65 67 69 69 69 69 69 68 66 63 59 56 55 54 51 48 49 46 43 44 46 45 47 43 42 43 39 39 36 32
60 63 65 69 72 75 76 76 75 75 73 71 68 66 59 59 54 51 51 49 49 47 48 47 47 46 42 44 42 39 37 36
64 66 70 75 78 81 81 82 84 85 82 81 77 72 68 62 61 59 53 52 52 50 50 45 47 48 44 50 43 40 41 39
50 51 51 51 52 55 60 64 71 80 85 88 86 80 76 70 69 64 61 55 57 54 52 51 52 49 45 48 44 43 41 40

GFSFLT2_500_spd_120.txt.gz
Wind_Speed
32 31 33 33 33 32 30 30 30 29 27 25 25 26 26 25 23 23 24 21 21 22 22 18 15 14 13 12 12 12 13 11
36 36 36 35 35 35 34 33 32 31 28 26 25 25 26 25 23 21 22 22 21 23 23 21 18 16 14 14 14 13 11 16
40 39 38 38 38 37 37 36 35 33 31 29 27 26 27 26 26 22 18 19 22 22 20 21 20 18 17 16 15 14 12 17
43 42 42 41 41 40 39 40 37 36 35 31 28 26 26 27 26 24 21 19 20 21 26 23 21 20 21 20 18 17 15 16
43 45 46 45 43 42 41 40 39 39 38 35 31 27 25 26 27 26 26 24 21 20 21 23 24 25 25 24 22 19 19 18
43 45 47 49 46 45 40 41 41 41 42 39 34 31 27 26 27 28 28 28 23 19 21 22 24 24 26 29 25 22 22 19
47 44 46 48 49 49 45 40 40 44 44 42 37 34 32 31 29 28 28 26 27 21 22 23 25 25 24 25 27 25 25 21
46 47 47 47 49 50 48 42 45 43 45 43 39 33 34 32 33 30 29 28 28 25 21 24 24 25 25 25 26 26 25 23
46 48 48 49 49 50 50 48 49 50 47 44 39 37 33 36 34 32 32 30 29 28 21 23 24 23 24 26 26 26 25 24
46 46 46 47 47 49 50 49 50 55 48 47 39 37 39 37 36 35 35 35 32 34 24 22 24 23 23 25 26 26 25 24
49 49 48 48 52 52 51 50 50 49 56 45 46 41 42 41 37 36 37 38 34 33 31 25 26 25 23 23 25 26 25 23
52 52 52 50 51 51 52 52 53 52 53 55 51 48 45 45 43 37 38 40 35 30 34 31 27 30 25 25 25 26 26 23
54 55 56 54 54 54 54 55 56 56 56 54 54 53 51 48 47 45 36 41 40 36 34 37 31 31 30 26 26 26 27 25
54 56 57 58 58 58 58 56 56 56 56 57 58 57 54 54 52 48 44 41 42 42 37 38 36 34 33 30 27 28 25 28
55 55 57 58 59 60 63 62 61 60 57 55 55 58 56 59 55 52 48 45 44 44 41 41 40 38 35 33 29 30 33 30
58 57 56 60 63 63 64 65 65 64 65 64 62 59 59 56 54 52 51 47 46 44 41 41 45 41 39 36 34 34 33 33
55 58 60 60 62 65 66 66 67 66 67 67 65 64 61 60 59 55 53 53 53 46 41 42 44 44 39 39 39 35 35 36
51 51 51 54 63 64 64 67 68 68 68 69 66 64 61 60 61 57 56 52 55 52 42 41 45 46 44 44 42 39 36 39
49 51 53 55 57 61 63 63 65 69 71 72 70 70 66 65 64 64 59 54 58 52 50 48 47 49 49 47 45 42 37 40
49 51 55 58 61 66 69 72 73 76 76 77 76 76 73 68 68 67 62 59 58 56 53 54 50 51 51 51 47 44 38 41

GFSFLT2_500_spd_123.txt.gz
Wind_Speed
31 32 32 33 33 33 32 30 30 29 29 29 28 27 26 25 22 20 18 19 19 18 16 17 18 19 17 15 16 16 16 14
33 34 35 35 35 36 36 35 33 32 31 30 28 28 27 26 25 21 17 16 17 16 15 16 15 18 19 18 17 16 17 16
37 36 38 37 38 38 38 39 36 36 34 32 30 29 29 28 27 23 19 16 15 16 16 16 14 12 18 20 19 18 16 15
41 41 41 41 40 40 41 40 38 37 36 34 31 30 29 28 27 27 23 19 17 19 19 19 17 16 16 20 22 21 20 19
42 43 43 44 44 43 42 42 40 39 37 35 31 31 30 29 29 27 28 22 20 19 19 20 19 17 17 21 23 24 23 24
45 46 46 45 47 44 44 43 43 43 40 36 34 33 31 29 30 30 26 26 24 20 19 21 23 20 18 18 22 27 27 26
47 47 47 47 46 48 46 46 45 43 44 43 42 38 34 29 30 31 30 28 29 25 22 22 22 24 21 18 18 22 25 26
44 45 48 49 49 50 49 49 46 47 45 46 42 44 36 29 30 30 31 30 31 31 27 23 24 23 24 21 18 20 22 25
44 43 43 45 44 47 51 49 47 45 47 52 52 47 43 34 34 33 30 31 32 30 29 28 24 24 22 21 19 20 22 23
45 46 44 44 42 44 45 47 48 49 47 46 47 54 42 40 36 33 31 31 33 35 32 31 29 26 25 21 20 20 21 24
43 46 50 48 49 50 50 50 50 49 47 48 49 45 50 44 38 36 35 35 33 33 37 37 36 29 28 27 19 20 22 24
48 49 52 53 51 52 54 53 54 54 53 50 52 52 56 54 40 42 37 38 34 36 34 38 40 37 31 27 27 21 19 22
60 57 54 55 56 54 54 56 55 55 55 54 53 52 48 47 50 51 45 40 37 39 38 37 42 39 38 27 28 28 21 21
57 61 60 56 57 59 57 56 56 57 57 55 55 55 55 59 54 54 43 43 44 45 43 41 42 45 40 35 29 30 25 24
56 57 57 58 59 58 57 57 57 59 59 59 58 59 58 57 57 59 56 48 47 49 50 49 42 47 46 39 34 27 28 32
51 56 57 57 57 58 58 57 55 58 60 60 61 60 61 61 58 56 59 49 53 48 52 54 50 48 50 42 35 31 30 33
52 51 54 58 58 58 57 58 58 58 61 62 63 64 64 63 62 56 58 59 57 60 60 55 55 50 49 45 37 35 31 34
52 51 50 52 54 56 56 57 59 60 63 64 66 66 67 67 66 66 61 59 58 60 59 68 64 55 53 49 37 37 31 36
46 48 47 49 50 52 53 55 57 59 63 66 67 68 67 66 67 67 68 62 60 58 56 61 64 61 50 45 38 39 40 35
49 46 47 49 49 51 54 56 56 56 57 62 66 67 67 67 67 68 67 67 64 62 60 62 66 58 59 47 40 40 43 37

GFSFLT2_500_spd_126.txt.gz
Wind_Speed
33 32 34 32 31 32 32 32 31 31 30 30 30 29 29 28 27 25 22 20 19 18 17 18 20 21 21 22 21 19 17 13
36 34 36 36 35 35 35 34 33 33 33 33 32 32 32 29 28 26 24 18 19 17 16 17 18 20 20 21 22 19 18 18
34 39 38 39 39 39 39 37 37 36 35 34 34 33 34 32 29 26 24 20 19 18 17 17 17 21 20 18 20 20 19 19
45 38 39 40 42 42 41 42 40 40 38 37 36 36 35 33 30 29 27 23 20 19 20 21 19 20 22 22 20 21 22 21
47 47 43 42 43 44 43 44 45 44 41 40 39 38 35 32 31 31 30 27 26 21 21 19 19 21 23 22 20 23 23 22
28 43 43 40 42 46 45 46 46 46 45 43 44 42 37 33 32 30 31 31 30 27 22 18 19 20 23 24 23 21 25 28
33 33 35 38 42 44 47 49 49 50 48 47 47 45 39 37 33 31 29 31 32 32 29 23 20 20 21 26 25 21 24 27
37 39 36 36 39 41 44 44 50 52 55 56 54 53 49 46 42 34 33 30 29 31 33 29 26 23 21 22 24 24 23 26
42 39 37 36 41 42 43 44 44 48 53 53 54 61 56 51 49 43 35 33 32 32 30 33 30 24 22 25 22 23 25 26
40 42 41 40 40 44 46 48 47 46 49 54 57 59 63 53 54 51 40 38 37 34 32 30 32 29 26 26 24 24 28 27
47 42 47 50 50 46 50 51 51 53 52 53 54 51 56 36 53 57 54 41 40 37 35 33 34 31 30 31 28 24 27 29
49 48 49 56 58 58 52 56 56 57 57 58 55 53 53 53 57 71 46 54 48 40 37 37 36 34 34 32 32 29 28 28
48 49 52 56 63 65 64 55 61 62 62 61 61 54 53 51 52 56 67 61 49 36 43 42 40 38 38 35 34 33 33 28
54 52 53 56 57 68 69 65 59 64 65 66 65 63 56 55 55 56 50 56 46 50 51 45 42 39 41 39 39 36 33 31
53 56 56 56 60 64 69 68 66 63 67 68 67 65 63 59 57 58 68 60 53 53 47 50 44 44 45 46 44 40 34 34
53 55 57 55 55 62 68 67 68 68 63 68 67 66 65 63 62 60 62 60 55 55 48 47 48 51 49 48 42 44 40 36
54 56 58 61 62 60 59 62 65 67 66 63 66 67 67 65 65 64 63 61 58 56 50 58 57 58 57 52 47 47 46 40
55 58 60 61 61 59 59 56 58 63 64 66 66 66 65 66 67 67 67 65 64 62 59 54 55 61 57 57 58 54 50 48
59 59 57 54 54 55 54 55 53 55 60 65 68 67 69 68 69 69 70 70 68 65 64 61 58 58 64 57 67 55 52 55
51 53 53 54 52 50 50 51 51 50 52 57 64 68 70 71 73 72 72 72 71 69 68 68 63 64 50 65 46 60 69 54

GFSFLT2_500_spd_129.txt.gz
Wind_Speed
37 35 37 33 32 32 34 35 34 33 31 30 29 28 27 28 29 27 26 26 24 21 21 20 20 20 20 22 23 24 25 23
34 37 35 38 35 33 34 36 36 36 35 34 32 31 29 29 30 28 27 26 25 22 20 20 19 19 20 20 20 22 23 23
36 39 37 35 37 36 35 35 37 38 38 38 36 33 32 32 31 29 27 26 26 24 22 21 21 19 19 20 20 20 21 22
30 33 41 42 38 39 38 37 37 39 39 41 40 39 37 36 34 29 26 25 26 26 24 23 24 24 23 21 20 23 24 22
28 27 30 37 38 34 38 39 38 40 42 44 44 43 41 41 38 32 31 28 25 25 25 25 26 26 23 22 20 22 23 24
28 27 27 31 28 33 36 37 38 40 43 46 48 48 47 46 41 36 35 32 27 26 25 27 26 27 25 23 20 22 23 24
39 34 28 32 36 35 37 39 39 37 42 47 50 51 52 51 48 43 40 37 31 29 28 27 27 29 28 24 21 23 24 24
41 38 36 33 37 37 38 41 42 42 44 51 53 48 54 58 57 52 46 43 37 33 32 31 30 29 30 27 23 21 25 23
46 44 40 39 39 41 41 42 44 47 47 49 52 56 54 58 64 63 55 50 47 41 37 35 32 30 30 31 25 24 23 24
50 48 45 44 44 46 47 47 48 49 51 53 53 55 59 56 58 59 65 62 55 48 43 38 35 34 31 32 29 25 26 26
55 55 53 54 56 53 54 54 53 54 54 57 59 59 59 51 59 58 61 75 64 57 50 42 39 37 36 36 34 29 27 28
61 60 59 59 59 60 59 59 60 60 59 60 63 63 62 61 61 57 61 57 68 66 55 45 43 42 41 38 39 34 31 29
67 68 67 65 65 62 60 60 65 64 65 65 67 69 68 63 62 57 53 52 49 58 58 55 52 48 46 42 40 36 35 32
71 70 69 68 64 61 61 60 62 65 70 67 70 71 72 71 65 63 59 59 47 43 74 58 60 51 47 46 45 43 39 36
70 68 61 57 58 58 59 61 62 67 73 73 72 74 76 75 71 68 64 58 57 53 59 45 63 51 53 51 48 46 47 42
56 54 55 56 61 65 67 64 63 62 67 71 73 74 77 78 76 71 65 62 57 63 58 47 58 59 57 46 50 44 50 46
53 56 57 58 61 64 65 66 65 64 59 63 70 71 78 80 77 73 68 63 63 60 64 42 56 45 58 48 49 47 52 51
57 59 60 61 61 63 65 65 64 62 62 64 66 67 70 80 79 75 71 65 64 64 62 61 52 51 46 43 45 49 55 54
56 55 55 53 53 55 54 52 51 52 58 60 60 62 60 73 79 76 73 70 66 64 63 61 57 57 56 52 51 53 54 63
47 49 50 52 53 55 55 54 54 49 48 49 50 51 54 61 72 76 72 72 70 67 64 62 61 61 58 58 57 55 51 54